Location: Unspecified
(42.1900°N, 71.3291°W)
Time: 04:56:28
(UTC-04:00)

CZ-3 Stage 3 - Visible Passes

Search period start: 24 July 2017 00:00
Search period end: 03 August 2017 00:00
Orbit: 426 x 34772 km, 31.0° (Epoch: 23 July)

Date Brightness Start Highest point End Pass type
(mag) Time Alt. Az. Time Alt. Az. Time Alt. Az.
24 Jul 7.4 14:28:25 10° W 14:52:04 68° S 23:07:42 10° SSW visible
26 Jul 9.5 18:02:13 10° W 19:09:43 45° WSW 23:50:17 10° WSW visible
27 Jul 7.3 14:19:15 10° W 14:42:38 68° S 22:56:02 10° SSW visible
29 Jul 9.5 17:53:06 10° W 18:59:29 44° WSW 23:35:34 10° WSW visible
30 Jul 7.3 14:10:06 10° W 14:33:13 68° S 22:44:15 10° SSW visible
01 Aug 9.4 17:44:00 10° W 18:49:18 43° WSW 23:20:50 10° WSW visible
02 Aug 7.2 14:00:58 10° W 14:23:50 67° S 22:32:21 10° SSW visible
